Location: Errabaliem
(16.8108°N, 80.4255°E)
Time: 00:20:11
(UTC+00:00)

USA 267 - Pass Details

Date: 05 August 2024
Orbit: 1099 x 1109 km, 123.0° (Epoch: 17 September)

Event Time Altitude Azimuth Distance (km) Brightness Sun altitude
Exits shadow 14:11:36 - 156° (SSE) 3,080 5.2 -14.9°
Reaches altitude 10° 14:11:56 10° 157° (SSE) 2,953 5.1 -15.0°
Maximum altitude 14:18:18 56° 234° (SW) 1,289 3.8 -16.4°
Drops below altitude 10° 14:24:42 10° 311° (NW) 2,962 6.7 -17.8°
Sets 14:27:15 0° 316° (NW) 3,922 7.4 -18.4°
